Radiation Dose at Monitoring Post of Fukushima Daini Nuclear Power Station
Date,Time,MP-1(microSv/h),MP-2(microSv/h),MP-3(microSv/h),MP-4(microSv/h),MP-5(microSv/h),MP-6(microSv/h),MP-7(microSv/h),Wind Direction,Wind Velocity(m/s),Rain
2024/06/24,00:00,0.142,0.126,0.201,0.190,0.202,0.113,0.074,east-southeast,1.0,No
2024/06/24,00:10,0.142,0.126,0.203,0.190,0.201,0.112,0.074,southeast,0.8,No
2024/06/24,00:20,0.143,0.126,0.202,0.190,0.202,0.112,0.073,south-southeast,1.3,No
2024/06/24,00:30,0.140,0.124,0.202,0.189,0.202,0.113,0.073,south-southeast,1.3,No
2024/06/24,00:40,0.142,0.126,0.203,0.190,0.200,0.112,0.072,south-southeast,1.8,No
2024/06/24,00:50,0.141,0.125,0.201,0.189,0.201,0.112,0.073,south-southeast,1.7,No
2024/06/24,01:00,0.140,0.126,0.202,0.189,0.201,0.112,0.073,south-southeast,1.6,No
2024/06/24,01:10,0.141,0.125,0.201,0.189,0.201,0.111,0.073,south-southeast,1.3,No
2024/06/24,01:20,0.140,0.125,0.201,0.188,0.201,0.112,0.073,south-southeast,1.7,No
2024/06/24,01:30,0.142,0.126,0.203,0.189,0.199,0.111,0.072,south-southeast,2.0,No
2024/06/24,01:40,0.140,0.125,0.200,0.188,0.202,0.111,0.073,south-southeast,1.3,Yes
2024/06/24,01:50,0.141,0.126,0.202,0.189,0.201,0.111,0.072,southeast,1.1,No
2024/06/24,02:00,0.140,0.125,0.201,0.189,0.200,0.111,0.073,southeast,1.5,No
2024/06/24,02:10,0.141,0.125,0.203,0.187,0.202,0.112,0.072,southeast,1.8,No
2024/06/24,02:20,0.142,0.125,0.201,0.190,0.199,0.112,0.073,southeast,1.4,No
2024/06/24,02:30,0.142,0.125,0.202,0.189,0.201,0.111,0.072,east-northeast,1.2,No
2024/06/24,02:40,0.141,0.126,0.201,0.189,0.200,0.112,0.072,east-northeast,1.3,No
2024/06/24,02:50,0.141,0.125,0.200,0.190,0.199,0.112,0.073,east-northeast,1.0,No
2024/06/24,03:00,0.140,0.124,0.202,0.188,0.202,0.111,0.072,east,0.8,No
2024/06/24,03:10,0.142,0.125,0.201,0.189,0.198,0.111,0.073,south-southeast,1.6,No
2024/06/24,03:20,0.139,0.124,0.202,0.189,0.202,0.111,0.072,southeast,1.3,No
2024/06/24,03:30,0.141,0.126,0.201,0.189,0.199,0.111,0.072,-,CALM,No
2024/06/24,03:40,0.142,0.124,0.202,0.190,0.200,0.111,0.072,-,CALM,No
2024/06/24,03:50,0.140,0.126,0.202,0.188,0.202,0.111,0.072,-,CALM,No
2024/06/24,04:00,0.142,0.124,0.201,0.189,0.200,0.112,0.072,-,CALM,No
2024/06/24,04:10,0.140,0.125,0.202,0.187,0.202,0.110,0.072,-,CALM,No
2024/06/24,04:20,0.140,0.125,0.200,0.189,0.201,0.112,0.073,south-southeast,0.7,No
2024/06/24,04:30,0.141,0.123,0.202,0.189,0.200,0.112,0.072,-,CALM,No
2024/06/24,04:40,0.140,0.126,0.201,0.187,0.202,0.112,0.072,-,CALM,No
2024/06/24,04:50,0.141,0.125,0.201,0.189,0.199,0.112,0.072,-,CALM,No
2024/06/24,05:00,0.140,0.126,0.202,0.188,0.201,0.112,0.073,south-southwest,0.9,No
2024/06/24,05:10,0.141,0.125,0.201,0.189,0.201,0.112,0.072,southeast,0.7,No
2024/06/24,05:20,0.142,0.124,0.203,0.190,0.200,0.111,0.072,southwest,1.8,No
2024/06/24,05:30,0.141,0.126,0.201,0.187,0.201,0.111,0.073,south-southwest,1.4,No
2024/06/24,05:40,0.141,0.124,0.201,0.190,0.201,0.112,0.072,west-southwest,2.7,No
2024/06/24,05:50,0.140,0.125,0.202,0.188,0.199,0.112,0.073,west,5.2,Yes
2024/06/24,06:00,0.141,0.126,0.202,0.188,0.202,0.112,0.073,west,3.7,No
2024/06/24,06:10,0.141,0.125,0.203,0.190,0.199,0.113,0.072,south-southwest,2.5,Yes
2024/06/24,06:20,0.142,0.126,0.202,0.189,0.202,0.112,0.073,south-southeast,3.1,Yes
2024/06/24,06:30,0.143,0.126,0.204,0.191,0.202,0.112,0.073,south-southeast,4.3,Yes
2024/06/24,06:40,0.142,0.127,0.203,0.190,0.200,0.113,0.073,south-southeast,4.1,Yes
2024/06/24,06:50,0.142,0.126,0.201,0.189,0.202,0.111,0.073,south-southeast,4.9,No
2024/06/24,07:00,0.143,0.126,0.203,0.191,0.201,0.113,0.072,south-southeast,5.2,Yes
2024/06/24,07:10,0.141,0.125,0.202,0.188,0.199,0.113,0.073,south,5.3,No
2024/06/24,07:20,0.142,0.124,0.201,0.189,0.202,0.112,0.073,south,4.1,No
2024/06/24,07:30,0.142,0.125,0.202,0.191,0.202,0.112,0.072,south,1.6,No
2024/06/24,07:40,0.141,0.125,0.201,0.188,0.200,0.112,0.072,southwest,1.6,No
2024/06/24,07:50,0.141,0.125,0.202,0.189,0.201,0.112,0.072,south-southwest,2.6,No
2024/06/24,08:00,0.142,0.124,0.204,0.190,0.202,0.112,0.072,south-southwest,2.7,No
2024/06/24,08:10,0.142,0.126,0.201,0.189,0.201,0.112,0.073,south,2.5,No
2024/06/24,08:20,0.141,0.126,0.201,0.188,0.200,0.112,0.074,south-southwest,1.7,No
2024/06/24,08:30,0.140,0.126,0.201,0.187,0.199,0.112,0.074,south,0.8,No
2024/06/24,08:40,0.140,0.125,0.199,0.188,0.199,0.112,0.073,-,CALM,No
2024/06/24,08:50,0.140,0.125,0.200,0.187,0.200,0.113,0.073,-,CALM,No
2024/06/24,09:00,0.140,0.124,0.199,0.187,0.199,0.113,0.073,southwest,0.8,No
2024/06/24,09:10,0.142,0.125,0.201,0.188,0.200,0.112,0.072,north,0.9,No
2024/06/24,09:20,0.142,0.125,0.201,0.188,0.200,0.112,0.072,north-northwest,1.3,No
2024/06/24,09:30,0.141,0.124,0.200,0.188,0.201,0.111,0.072,north-northeast,2.4,No
2024/06/24,09:40,0.141,0.125,0.201,0.188,0.201,0.113,0.073,northeast,1.6,No
2024/06/24,09:50,0.141,0.124,0.202,0.188,0.201,0.112,0.073,northeast,1.2,No
2024/06/24,10:00,0.140,0.125,0.201,0.189,0.200,0.111,0.074,northeast,1.6,No
2024/06/24,10:10,0.141,0.125,0.202,0.187,0.202,0.112,0.073,east,1.8,No
2024/06/24,10:20,0.141,0.125,0.202,0.189,0.202,0.112,0.072,north-northeast,0.6,No
2024/06/24,10:30,0.140,0.126,0.202,0.189,0.201,0.113,0.073,north,0.6,No
2024/06/24,10:40,0.140,0.126,0.202,0.189,0.202,0.112,0.073,-,CALM,No
2024/06/24,10:50,0.141,0.127,0.203,0.189,0.202,0.111,0.073,-,CALM,No
2024/06/24,11:00,0.140,0.126,0.202,0.189,0.202,0.112,0.072,northwest,1.9,No
2024/06/24,11:10,0.140,0.125,0.202,0.190,0.201,0.111,0.073,west-northwest,3.9,No
2024/06/24,11:20,0.141,0.125,0.201,0.189,0.202,0.112,0.073,west-northwest,6.6,No
2024/06/24,11:30,0.141,0.125,0.202,0.189,0.202,0.112,0.072,west-northwest,5.9,No
2024/06/24,11:40,0.141,0.126,0.203,0.189,0.202,0.112,0.072,west-northwest,5.6,No
2024/06/24,11:50,0.140,0.126,0.202,0.189,0.202,0.112,0.073,west-northwest,6.9,No
2024/06/24,12:00,0.141,0.126,0.202,0.189,0.202,0.113,0.072,west-northwest,2.4,No
2024/06/24,12:10,0.142,0.126,0.203,0.190,0.202,0.112,0.073,northwest,3.5,No
2024/06/24,12:20,0.142,0.126,0.203,0.190,0.202,0.113,0.072,northwest,2.0,No
2024/06/24,12:30,0.142,0.126,0.203,0.190,0.203,0.113,0.073,northwest,4.1,No
2024/06/24,12:40,0.142,0.126,0.203,0.191,0.202,0.113,0.073,west,5.3,No
2024/06/24,12:50,0.143,0.127,0.203,0.191,0.202,0.112,0.073,west-northwest,6.2,No
2024/06/24,13:00,0.143,0.126,0.204,0.191,0.202,0.113,0.074,west-northwest,6.4,No
2024/06/24,13:10,0.142,0.127,0.204,0.191,0.203,0.113,0.073,west-northwest,6.9,No
2024/06/24,13:20,0.142,0.127,0.204,0.191,0.204,0.112,0.073,west-northwest,9.5,No
2024/06/24,13:30,0.142,0.127,0.205,0.191,0.203,0.113,0.074,west-northwest,8.4,No
2024/06/24,13:40,0.143,0.126,0.204,0.191,0.203,0.113,0.073,west-northwest,7.6,No
2024/06/24,13:50,0.142,0.127,0.203,0.192,0.202,0.113,0.073,west-northwest,7.0,No
2024/06/24,14:00,0.143,0.127,0.204,0.191,0.202,0.113,0.072,west-northwest,6.1,No
2024/06/24,14:10,0.142,0.128,0.203,0.192,0.202,0.113,0.072,west-northwest,6.2,No
2024/06/24,14:20,0.142,0.127,0.202,0.191,0.202,0.112,0.073,west-northwest,6.0,No
2024/06/24,14:30,0.142,0.127,0.202,0.191,0.203,0.112,0.072,northwest,4.2,No
2024/06/24,14:40,0.143,0.127,0.203,0.191,0.204,0.113,0.073,west-northwest,3.8,No
2024/06/24,14:50,0.143,0.127,0.203,0.192,0.203,0.112,0.072,west,5.2,No
2024/06/24,15:00,0.143,0.127,0.202,0.191,0.203,0.112,0.072,west-northwest,4.7,No
2024/06/24,15:10,0.143,0.127,0.203,0.190,0.202,0.112,0.074,northwest,4.0,No
2024/06/24,15:20,0.142,0.126,0.204,0.190,0.203,0.113,0.073,west-northwest,5.2,No
2024/06/24,15:30,0.143,0.127,0.204,0.190,0.203,0.112,0.073,west-northwest,3.8,No
2024/06/24,15:40,0.143,0.127,0.204,0.192,0.204,0.113,0.073,northwest,3.5,No
2024/06/24,15:50,0.143,0.128,0.204,0.192,0.204,0.114,0.073,west-northwest,2.9,No
2024/06/24,16:00,0.143,0.127,0.204,0.191,0.205,0.112,0.073,west-northwest,4.5,No
2024/06/24,16:10,0.142,0.127,0.204,0.191,0.203,0.114,0.074,west,5.6,No
2024/06/24,16:20,0.143,0.127,0.204,0.192,0.203,0.113,0.072,west,5.0,No
2024/06/24,16:30,0.144,0.127,0.203,0.191,0.203,0.113,0.072,west,5.8,No
2024/06/24,16:40,0.143,0.127,0.204,0.192,0.203,0.114,0.073,west,10.0,No
2024/06/24,16:50,0.142,0.127,0.204,0.191,0.201,0.113,0.072,west,8.2,No
2024/06/24,17:00,0.142,0.127,0.204,0.191,0.202,0.113,0.072,west-northwest,6.7,No
2024/06/24,17:10,0.143,0.127,0.203,0.191,0.202,0.114,0.073,west-northwest,6.1,No
2024/06/24,17:20,0.142,0.127,0.206,0.191,0.202,0.113,0.073,west-northwest,6.2,No
2024/06/24,17:30,0.142,0.127,0.206,0.190,0.203,0.114,0.073,west-northwest,5.2,No
2024/06/24,17:40,0.143,0.127,0.206,0.191,0.204,0.113,0.074,northwest,5.4,No
2024/06/24,17:50,0.143,0.126,0.204,0.194,0.203,0.113,0.073,west-northwest,6.2,No
2024/06/24,18:00,0.142,0.127,0.204,0.195,0.204,0.113,0.073,west-northwest,8.3,No
2024/06/24,18:10,0.143,0.127,0.203,0.193,0.202,0.114,0.074,west-northwest,7.0,No
2024/06/24,18:20,0.142,0.126,0.204,0.191,0.202,0.114,0.074,west-northwest,8.1,No
2024/06/24,18:30,0.142,0.126,0.207,0.191,0.201,0.114,0.073,west-northwest,9.2,No
2024/06/24,18:40,0.144,0.127,0.205,0.191,0.202,0.114,0.073,west-northwest,8.7,No
2024/06/24,18:50,0.144,0.128,0.204,0.194,0.203,0.112,0.073,west-northwest,8.4,No
2024/06/24,19:00,0.144,0.128,0.203,0.193,0.205,0.114,0.074,west-northwest,8.5,No
2024/06/24,19:10,0.143,0.128,0.207,0.192,0.204,0.113,0.073,west-northwest,6.2,No
2024/06/24,19:20,0.143,0.128,0.207,0.191,0.203,0.114,0.073,west-northwest,5.9,No
2024/06/24,19:30,0.143,0.126,0.204,0.191,0.202,0.113,0.073,west-northwest,5.7,No
2024/06/24,19:40,0.145,0.127,0.204,0.193,0.201,0.114,0.074,west-northwest,4.9,No
2024/06/24,19:50,0.145,0.128,0.206,0.193,0.203,0.114,0.074,west-northwest,2.2,No
2024/06/24,20:00,0.143,0.129,0.207,0.192,0.206,0.114,0.073,east-southeast,1.5,No
2024/06/24,20:10,0.144,0.127,0.205,0.191,0.205,0.114,0.074,east-southeast,3.1,No
2024/06/24,20:20,0.145,0.127,0.205,0.194,0.203,0.112,0.074,east-southeast,3.1,No
2024/06/24,20:30,0.145,0.128,0.206,0.194,0.203,0.114,0.074,east-northeast,3.4,No
2024/06/24,20:40,0.144,0.127,0.206,0.192,0.206,0.114,0.073,northeast,2.3,No
2024/06/24,20:50,0.144,0.128,0.206,0.193,0.203,0.112,0.074,north-northeast,1.9,No
2024/06/24,21:00,0.145,0.128,0.207,0.193,0.201,0.114,0.073,north,1.9,No
2024/06/24,21:10,0.144,0.128,0.205,0.194,0.205,0.114,0.073,north,0.8,No
2024/06/24,21:20,0.144,0.127,0.204,0.191,0.205,0.113,0.074,north-northeast,0.6,No
2024/06/24,21:30,0.145,0.128,0.207,0.194,0.202,0.114,0.073,north,0.9,No
2024/06/24,21:40,0.143,0.127,0.205,0.193,0.202,0.114,0.074,-,CALM,No
2024/06/24,21:50,0.144,0.127,0.203,0.191,0.205,0.113,0.074,east-southeast,0.9,No
2024/06/24,22:00,0.144,0.128,0.206,0.193,0.204,0.114,0.073,south-southeast,0.6,No
2024/06/24,22:10,0.143,0.128,0.207,0.193,0.202,0.114,0.074,-,CALM,No
2024/06/24,22:20,0.144,0.127,0.205,0.191,0.205,0.114,0.074,-,CALM,No
2024/06/24,22:30,0.146,0.128,0.206,0.194,0.204,0.114,0.074,southwest,0.8,No
2024/06/24,22:40,0.144,0.128,0.205,0.193,0.203,0.114,0.074,-,CALM,No
2024/06/24,22:50,0.143,0.126,0.206,0.192,0.202,0.114,0.074,-,CALM,No
2024/06/24,23:00,0.145,0.128,0.207,0.195,0.204,0.114,0.073,northeast,1.1,No
2024/06/24,23:10,0.145,0.127,0.206,0.194,0.204,0.115,0.074,northwest,2.0,No
2024/06/24,23:20,0.143,0.127,0.205,0.191,0.202,0.113,0.074,west-northwest,2.0,No
2024/06/24,23:30,0.144,0.128,0.207,0.194,0.204,0.113,0.073,northwest,1.2,No
2024/06/24,23:40,0.143,0.129,0.206,0.194,0.205,0.114,0.074,north,0.8,No
2024/06/24,23:50,0.143,0.128,0.206,0.192,0.204,0.113,0.075,north-northeast,0.9,No
